Simultaneous Nadir Overpasses (SNOs) Predictions

Prediction of SNOs between METOP-A and NOAA-19 Satellite Orbit:

Table of predicted SNOs for the next 14.0 days since TLE Epoch: 8/28/2020
Index Date (METOP-A) Time (METOP-A) Lat,Lon (METOP-A) SZA (METOP-A ) Date (NOAA-19) Time (NOAA-19) Lat,Lon (NOAA-19) SZA (NOAA-19 ) Distance(km) Time Diff (sec)
1 08/29/2020 18:53:29 80.67, -89.72 71.91 08/29/2020 18:52:18 80.66, -89.90 71.88 3.33 71
2 08/29/2020 19:44:11 -80.65, 77.35 108.12 08/29/2020 19:43:15 -80.67, 77.29 108.11 1.96 56
3 08/29/2020 20:34:51 80.66,-115.19 71.92 08/29/2020 20:34:18 80.66,-115.21 71.91 0.51 33
4 08/29/2020 21:25:33 -80.64, 51.88 108.10 08/29/2020 21:25:15 -80.66, 51.98 108.08 2.68 18
5 08/29/2020 22:16:13 80.65,-140.66 71.93 08/29/2020 22:16:18 80.65,-140.52 71.93 2.53 5
6 08/29/2020 23:06:54 -80.66, 26.75 108.06 08/29/2020 23:07:15 -80.65, 26.67 108.06 1.52 21
7 08/29/2020 23:57:35 80.64,-166.12 71.94 08/29/2020 23:58:19 80.66,-166.18 71.96 1.95 44
8 08/30/2020 00:48:16 -80.65, 1.28 108.04 08/30/2020 00:49:15 -80.65, 1.36 108.03 1.30 59
9 09/09/2020 20:57:39 -80.69, 59.26 103.95 09/09/2020 20:56:32 -80.68, 59.10 103.98 3.16 67
10 09/09/2020 21:48:20 80.67,-133.72 76.03 09/09/2020 21:47:37 80.67,-133.58 76.04 2.73 43
11 09/09/2020 22:39:01 -80.68, 33.79 103.94 09/09/2020 22:38:32 -80.67, 33.78 103.95 0.95 29
12 09/09/2020 23:29:41 80.68,-158.86 76.08 09/09/2020 23:29:37 80.67,-158.89 76.07 1.59 4
13 09/10/2020 00:20:23 -80.67, 8.32 103.93 09/10/2020 00:20:32 -80.67, 8.47 103.92 2.76 9
14 09/10/2020 01:11:03 80.67, 175.67 76.09 09/10/2020 01:11:37 80.66, 175.80 76.10 2.49 34
15 09/10/2020 02:01:45 -80.66, -17.15 103.91 09/10/2020 02:02:33 -80.67, -17.20 103.90 1.45 48
